Location: Gugi
(45.4667°N, 11.1000°E)
Time: 00:38:28
(UTC+00:00)

Cosmos 2346 Rocket - Pass Details

Date: 17 November 2019
Orbit: 935 x 981 km, 82.9° (Epoch: 08 December)

Event Time Altitude Azimuth Distance (km) Brightness Sun altitude
Rises 17:25:46 0° 178° (S) 3,662 7.6 -17.8°
Reaches altitude 10° 17:28:17 10° 176° (S) 2,715 6.9 -18.2°
Maximum altitude 17:34:27 70° 94° (E) 1,029 4.4 -19.3°
Drops below altitude 10° 17:40:36 10° 13° (NNE) 2,704 6.6 -20.3°
Sets 17:43:07 0° 11° (N) 3,648 7.3 -20.8°
